Location: Newark
(9.4667°S, 159.8167°E)
Time: 04:39:36
(UTC+00:00)

OTV 5 (USA 277) - Visible Passes

Search period start: 23 March 2019 00:00
Search period end: 02 April 2019 00:00
Orbit: 315 x 320 km, 54.5° (Epoch: 14 March)

Date Brightness Start Highest point End Pass type
(mag) Time Alt. Az. Time Alt. Az. Time Alt. Az.
23 Mar ? 08:32:16 10° W 08:34:04 16° SW 08:35:53 10° SSW visible
23 Mar ? 18:14:03 10° S 18:16:04 19° SE 18:18:05 10° ENE visible
24 Mar ? 18:29:24 26° SW 18:30:44 76° WNW 18:33:25 10° NNE visible
25 Mar ? 18:45:17 14° WNW 18:45:19 14° WNW 18:46:52 10° NNW visible
